WAT2175 LFST-LFOB

Flight info

Callsign WAT2175
Flight time N/A
Altitude 23000
Route POGOL R11 EPL/N0392F180 R11 RLP
Aircraft E55P/M-SBDFGHJ2RWY/LB2

Departure

Time 2026-05-08 20:42
Airport Strasbourg Airport (LFST)

Arrival

Time N/A
Airport Beauvais-Tillé airport (LFOB)
Time Latitude Longitude Altitude Speed Heading
2026-05-08 20:06 48.54074 7.62309 502 ft 0 kts 318°
2026-05-08 20:33 48.54075 7.62307 502 ft 0 kts 318°
2026-05-08 20:33 48.54078 7.62304 502 ft 0 kts 318°
2026-05-08 20:33 48.54080 7.62299 502 ft 0 kts 295°
2026-05-08 20:34 48.54077 7.62290 502 ft 2 kts 199°
2026-05-08 20:34 48.54058 7.62304 502 ft 3 kts 140°
2026-05-08 20:34 48.54016 7.62370 502 ft 5 kts 138°
2026-05-08 20:35 48.53988 7.62406 502 ft 5 kts 141°
2026-05-08 20:35 48.53957 7.62449 502 ft 6 kts 133°
2026-05-08 20:35 48.53921 7.62497 501 ft 6 kts 160°
2026-05-08 20:35 48.53872 7.62495 502 ft 7 kts 207°
2026-05-08 20:36 48.53838 7.62439 502 ft 7 kts 233°
2026-05-08 20:36 48.53804 7.62381 502 ft 7 kts 226°
2026-05-08 20:36 48.53769 7.62324 503 ft 7 kts 229°
2026-05-08 20:36 48.53734 7.62263 503 ft 8 kts 230°
2026-05-08 20:37 48.53692 7.62192 503 ft 9 kts 229°
2026-05-08 20:37 48.53650 7.62119 503 ft 9 kts 229°
2026-05-08 20:37 48.53606 7.62045 504 ft 9 kts 229°
2026-05-08 20:37 48.53564 7.61972 504 ft 9 kts 230°
2026-05-08 20:38 48.53522 7.61899 505 ft 9 kts 228°
2026-05-08 20:38 48.53479 7.61827 505 ft 9 kts 229°
2026-05-08 20:38 48.53437 7.61754 506 ft 9 kts 229°
2026-05-08 20:38 48.53394 7.61681 506 ft 9 kts 228°
2026-05-08 20:39 48.53350 7.61610 506 ft 9 kts 227°
2026-05-08 20:39 48.53307 7.61538 507 ft 9 kts 230°
2026-05-08 20:39 48.53282 7.61494 507 ft 1 kts 228°
2026-05-08 20:39 48.53274 7.61481 507 ft 2 kts 228°
2026-05-08 20:40 48.53257 7.61465 507 ft 3 kts 189°
2026-05-08 20:40 48.53228 7.61476 507 ft 5 kts 147°
2026-05-08 20:40 48.53198 7.61522 507 ft 6 kts 134°
2026-05-08 20:40 48.53157 7.61580 507 ft 8 kts 137°
2026-05-08 20:41 48.53136 7.61636 507 ft 6 kts 50°
2026-05-08 20:41 48.53150 7.61656 507 ft 0 kts 47°
2026-05-08 20:41 48.53173 7.61693 507 ft 25 kts 48°
2026-05-08 20:41 48.53482 7.62225 504 ft 106 kts 49°
2026-05-08 20:42 48.54046 7.63191 957 ft 130 kts 46°
2026-05-08 20:42 48.54656 7.64143 1732 ft 133 kts 48°
2026-05-08 20:42 48.55333 7.65239 2202 ft 159 kts 50°
2026-05-08 20:42 48.56069 7.66561 2884 ft 174 kts 51°
2026-05-08 20:43 48.56903 7.68008 3539 ft 192 kts 51°
2026-05-08 20:43 48.57788 7.69542 4380 ft 200 kts 47°
2026-05-08 20:43 48.59014 7.70415 5215 ft 209 kts
2026-05-08 20:43 48.60348 7.69695 6092 ft 212 kts 316°
2026-05-08 20:44 48.61382 7.68161 7051 ft 211 kts 316°
2026-05-08 20:44 48.62455 7.66686 7965 ft 212 kts 316°
2026-05-08 20:44 48.63343 7.65008 8819 ft 211 kts 286°
2026-05-08 20:44 48.63260 7.62903 9696 ft 208 kts 242°
2026-05-08 20:45 48.62344 7.61249 10572 ft 209 kts 229°
2026-05-08 20:45 48.61396 7.59589 11411 ft 212 kts 230°
2026-05-08 20:45 48.60436 7.57929 12106 ft 222 kts 230°
2026-05-08 20:45 48.59579 7.55816 12293 ft 254 kts 256°
2026-05-08 20:46 48.59627 7.53045 12580 ft 282 kts 278°
2026-05-08 20:46 48.59819 7.49977 12811 ft 306 kts 272°
2026-05-08 20:46 48.59981 7.46636 13006 ft 329 kts 273°
2026-05-08 20:46 48.60131 7.43090 13357 ft 344 kts 273°
2026-05-08 20:47 48.60283 7.39504 14143 ft 344 kts 273°
2026-05-08 20:47 48.60433 7.35941 14973 ft 343 kts 273°
2026-05-08 20:47 48.60583 7.32327 15634 ft 347 kts 272°
2026-05-08 20:47 48.60737 7.28663 16265 ft 352 kts 272°
2026-05-08 20:48 48.60885 7.24993 16889 ft 355 kts 272°
2026-05-08 20:48 48.61039 7.21257 17518 ft 359 kts 272°
2026-05-08 20:48 48.61189 7.17527 18214 ft 360 kts 272°
2026-05-08 20:48 48.61316 7.13792 18968 ft 359 kts 271°
2026-05-08 20:49 48.61792 7.10148 19775 ft 357 kts 284°
2026-05-08 20:49 48.62347 7.06494 20613 ft 354 kts 282°
2026-05-08 20:49 48.62920 7.02954 21399 ft 352 kts 281°
2026-05-08 20:49 48.63480 6.99380 22200 ft 350 kts 282°
2026-05-08 20:50 48.64039 6.95812 22950 ft 349 kts 282°
2026-05-08 20:50 48.64610 6.92166 23075 ft 365 kts 282°
2026-05-08 20:50 48.65202 6.88375 23097 ft 382 kts 282°
2026-05-08 20:50 48.65821 6.84387 23094 ft 398 kts 282°
2026-05-08 20:51 48.66461 6.80284 23103 ft 411 kts 282°
2026-05-08 20:51 48.67124 6.76002 23092 ft 417 kts 282°
2026-05-08 20:51 48.67774 6.71802 23073 ft 414 kts 282°
2026-05-08 20:51 48.68418 6.67638 23078 ft 400 kts 282°
2026-05-08 20:52 48.69041 6.63585 23067 ft 394 kts 282°
2026-05-08 20:52 48.69659 6.59574 23067 ft 388 kts 282°
2026-05-08 20:52 48.70263 6.55617 23076 ft 390 kts 282°
2026-05-08 20:52 48.70878 6.51597 23084 ft 401 kts 282°
2026-05-08 20:53 48.71513 6.47421 23084 ft 411 kts 282°
2026-05-08 20:53 48.72157 6.43183 23082 ft 418 kts 282°
2026-05-08 20:53 48.72798 6.38967 23072 ft 409 kts 282°
2026-05-08 20:53 48.73427 6.34790 23070 ft 403 kts 282°
2026-05-08 20:54 48.74044 6.30690 23069 ft 402 kts 282°
2026-05-08 20:54 48.74672 6.26516 23081 ft 407 kts 282°
2026-05-08 20:54 48.75287 6.22416 23081 ft 401 kts 282°
2026-05-08 20:54 48.75902 6.18301 23081 ft 396 kts 282°
2026-05-08 20:55 48.76502 6.14288 23073 ft 392 kts 282°
2026-05-08 20:55 48.77097 6.10288 23079 ft 388 kts 282°
2026-05-08 20:55 48.77689 6.06300 23077 ft 385 kts 282°
2026-05-08 20:55 48.78271 6.02368 23081 ft 382 kts 282°
2026-05-08 20:56 48.78844 5.98488 23070 ft 379 kts 282°
2026-05-08 20:56 48.79414 5.94606 23083 ft 377 kts 282°
2026-05-08 20:56 48.79980 5.90768 23069 ft 375 kts 282°
2026-05-08 20:56 48.80546 5.86901 23058 ft 372 kts 282°
2026-05-08 20:57 48.81102 5.83106 23076 ft 370 kts 282°
2026-05-08 20:57 48.81650 5.79340 23068 ft 369 kts 282°
2026-05-08 20:57 48.82207 5.75515 23069 ft 367 kts 282°
2026-05-08 20:57 48.82753 5.71746 23050 ft 366 kts 282°
2026-05-08 20:58 48.83295 5.67988 23070 ft 365 kts 282°
2026-05-08 20:58 48.83830 5.64286 23064 ft 364 kts 283°
2026-05-08 20:58 48.84371 5.60530 23072 ft 363 kts 283°
2026-05-08 20:58 48.84904 5.56822 23062 ft 363 kts 283°
2026-05-08 20:59 48.85441 5.53072 23074 ft 362 kts 283°
2026-05-08 20:59 48.85976 5.49326 23062 ft 362 kts 283°
2026-05-08 20:59 48.86509 5.45608 23070 ft 361 kts 283°
2026-05-08 20:59 48.87035 5.41896 23070 ft 361 kts 283°
2026-05-08 21:00 48.87566 5.38155 23058 ft 360 kts 283°
2026-05-08 21:00 48.88090 5.34444 23065 ft 360 kts 283°
2026-05-08 21:00 48.88617 5.30720 23064 ft 360 kts 283°
2026-05-08 21:00 48.89136 5.27039 23061 ft 360 kts 283°
2026-05-08 21:01 48.89657 5.23341 23063 ft 360 kts 283°
2026-05-08 21:01 48.90183 5.19591 23055 ft 360 kts 283°
2026-05-08 21:01 48.90700 5.15887 23065 ft 360 kts 283°
2026-05-08 21:01 48.91215 5.12203 23058 ft 360 kts 283°
2026-05-08 21:02 48.91735 5.08463 23062 ft 360 kts 283°
2026-05-08 21:02 48.92243 5.04779 23047 ft 360 kts 284°